This is the latest recevied weather packets stored in our database for station/object HS3PIK-2. If no packets are shown the sender has not sent any weather packets the latest 10 day(s).
| Time | Temp. | Humidity | Pressure | Rain* | Wind** | Luminosity | Snow |
|---|---|---|---|---|---|---|---|
| 1787998359 | 31.11° C | 77% | - | - | - | 0 W/m² | - |
| 1787998031 | 31.11° C | 77% | - | - | - | 0 W/m² | - |
| 1787997704 | 31.67° C | 76% | - | - | - | 0 W/m² | - |
| 1787997371 | 31.67° C | 75% | - | - | - | 0 W/m² | - |
| 1787997044 | 31.67° C | 76% | - | - | - | 0 W/m² | - |
| 1787996714 | 31.67° C | 77% | - | - | - | 0 W/m² | - |
| 1787996389 | 31.67° C | 77% | - | - | - | 0 W/m² | - |
| 1787996059 | 32.22° C | 75% | - | - | - | 0 W/m² | - |
| 1787995729 | 32.78° C | 74% | - | - | - | 0 W/m² | - |
| 1787995402 | 32.78° C | 77% | - | - | - | 0 W/m² | - |
| 1787995074 | 32.22° C | 74% | - | - | - | 0 W/m² | - |
| 1787994747 | 31.67° C | 79% | - | - | - | 0 W/m² | - |
| 1787994417 | 30.56° C | 79% | - | - | - | 0 W/m² | - |
| 1787994089 | 30.56° C | 80% | - | - | - | 0 W/m² | - |
| 1787993762 | 30° C | 80% | - | - | - | 0 W/m² | - |
| 1787993434 | 30° C | 81% | - | - | - | 0 W/m² | - |
| 1787993102 | 30° C | 79% | - | - | - | 0 W/m² | - |
| 1787992774 | 30.56° C | 76% | - | - | - | 0 W/m² | - |
| 1787992444 | 30.56° C | 75% | - | - | - | 0 W/m² | - |
| 1787992313 | 30.56° C | 76% | - | - | - | 0 W/m² | - |
| 1787991988 | 31.11° C | 75% | - | - | - | 0 W/m² | - |
| 1787991661 | 30.56° C | 75% | - | - | - | 0 W/m² | - |
| 1787991331 | 31.11° C | 73% | - | - | - | 0 W/m² | - |
| 1787991001 | 32.22° C | 72% | - | - | - | 0 W/m² | - |
| 1787990673 | 32.22° C | 71% | - | - | - | 0 W/m² | - |
* Rain since midnight (hover to see other rain measurements)
** Current wind speed in m/s (hover to see current wind gust speed)